timestamp,gas_concentrations,,corrected_fluxes_and_quality_flags,,,,,,,,,,storage_terms,,,turbulence,,,footprint,,
ISOdate,CO2_1_1_1,H2O_1_1_1,Tau_1_1_1,QcTau_1_1_1,H_1_1_1,QcH_1_1_1,LE_1_1_1, QcLE_1_1_1,Fc_1_1_1, QcFc_1_1_1,E_1_1_1, QcE_1_1_1,Sa_1_1_1,Sw_1_1_1,Sc_1_1_1,ustar_1_1_1,MO_length_1_1_1,ZL_1_1_1,Fetchmax_1_1_1,Fetch70_1_1_1,Fetch90_1_1_1
yyyymmddHHMM,[µmol+1mol_a-1],[mmol+1mol_a-1],[kg+1m-1s-2],[#],[W+1m-2],[#],[W+1m-2],[#],[µmol+1s-1m-2],[#],[mmol+1s-1m-2],[#],[W+1m-2],[W+1m-2],[µmol+1s-1m-2],[m+1s-1],[m],[#],[m],[m],[m]
201803150030,418.91858424206259,3.2728750091992169,8.31805008503542637E-002,0,-14.212082592121988,0,-1.0939918209224200,0,0.39563616630370080,0,-2.42984414749053204E-002,0,-9999.,-9999.,-9999.,0.26372015902228929,107.66164649479207,0.20062854975048949,97.444328121687775,178.15931008090297,266.91511137806327
201803150100,419.14252751798125,3.2859934550899816,9.44801525887450228E-002,0,-27.385258360723228,0,1.2260224368001404,0,0.39775645474925048,0,2.72247931948380838E-002,0,-5.5865779273944787,0.47539216720139688,0.18020790250429544,0.28092238106573852,67.541564268722780,0.31980307583729672,93.472585385857570,170.89769763742964,256.03589269870349
201803150130,419.29943742787123,3.2790065316141823,0.18729128996902444,0,-27.426594964018076,0,1.1723171011244233,0,0.42783993190067826,0,2.60239726414998804E-002,0,-7.8467613676070780,-0.25359779459004966,0.12642656901340132,0.39527393452010923,187.87292171248421,0.11497133170184086,108.72568716962051,198.78523242545160,297.81650158534723
201803150200,419.50749181872231,3.2934044747253122,0.19023068620662242,0,-28.089755623170348,0,1.3132968925067290,0,0.15245430407604710,0,2.91437482389386923E-002,0,-8.3357833502424512,0.52350679175441717,0.16787315119886403,0.39808211697400636,187.39062948675317,0.11526723646300002,97.720184261671307,178.66366308459624,267.67072408274606
201803150230,419.30149548085996,3.3573470615554459,0.19499659116791054,0,-29.801433802009328,0,1.5104985627006779,0,0.29586916756532067,0,3.35183611300122614E-002,0,-1.1441911685940251,2.3257815673640669,-0.16626494058343072,0.40297929726669579,183.24637168917556,0.11787409377271682,91.804578875506678,167.84804975311701,251.46696444939928
201803150300,418.42880074349432,3.3393235754630908,0.68587778176503922,0,-29.451338731179007,0,3.0883428868575109,1,2.2861999854631359,0,6.85025780470072676E-002,1,-10.362996111402859,-0.65700401637399408,-0.70562342442731030,0.75510333032645838,1220.0668497339796,1.77039479473683065E-002,125.02972087819495,228.59420594957527,342.47577583065129
201803150330,418.15320801969904,3.4007969225759189,0.22268630926765470,0,-19.820504658730179,0,-3.1362944032529030,0,0.18959128554943350,0,-6.95286927084066975E-002,0,-13.438363046729096,2.2469650862501749,-0.22331837133331695,0.42979543165889211,334.32432765814946,6.46079217486268398E-002,103.74885189336499,189.68599026025632,284.18417872287000
201803150400,418.15479592895605,3.5019458057368738,0.15575412766322075,0,-8.5198900871153285,1,-6.9370295487908571,1,0.19495928595738699,1,-0.15371086160321398,1,-12.441119466159487,3.7066078727938652,1.28935421706610049E-003,0.35908577817259668,453.62483295655261,4.76164407914343862E-002,105.83277561417593,193.49606745528061,289.89236864798318
201803150430,418.27617298516958,3.6603980659527253,0.23651615389493538,0,-10.400350238622458,1,-0.97116085293202004,2,0.24488267991446611,1,-2.15111132730747834E-002,2,-9.1834705156311731,5.8175355759928458,9.87072218872114132E-002,0.44216969364623016,693.89864154034524,3.11284656099793146E-002,115.18664812682128,210.59792967302334,315.51407461747880
201803150500,418.55507776236260,3.8661808717985138,0.15762320630326285,0,-1.9284965334238977,0,-2.5661802519397501,1,-0.96244600607626152,0,-5.68206163237205478E-002,1,-8.8337058707504763,7.5692513111442938,0.22715305126507590,0.36071185977907311,2031.8409825776055,1.06307531865009013E-002,98.343525954463473,179.80333050365661,269.37815355109274
201803150530,418.67920891998722,3.8191227362325821,0.10872228596941001,0,0.18117351173304475,2,2.6303496818366674,1,-0.16479011166326657,1,5.82308529955251966E-002,1,-4.5746908396552861,-1.7326310642535887,0.10117934173264855,0.29945498685435890,-12375.161430563758,-1.74543177648196551E-003,99.706361335357272,182.29502823398190,273.11117079789409
201803150600,418.64901497203886,3.7782340604895714,0.15844838527338923,0,3.9249963020204239,1,2.4461463344679526,1,6.02958491143005537E-002,0,5.41480496313036172E-002,1,-2.2721936332986981,-1.5060749092379599,-2.46186262064741271E-002,0.36144845670723852,-1004.4598695209406,-2.15040945441670461E-002,99.863531548887693,182.58238551118413,273.54168436249483
201803150630,418.50215477340521,3.7648802579229539,0.41669710410351529,0,-1.0997770753586236,2,2.6861192598963894,1,-0.38688866178190162,0,5.94525739960884911E-002,1,-3.1844418880646743,-0.49220830670268351,-0.11981011094803477,0.58598822005736240,15276.173139059571,1.41396669200947122E-003,118.07593201250712,215.88046210588942,323.42827080535358
201803150700,418.44407083906754,3.7570163645182952,0.15373582890639209,0,-1.5118435126179082,0,2.9047634594216656,1,0.33127684390728129,0,6.42852592682343627E-002,1,-2.5915623256514335,-0.29002409538299950,-4.74081617331490943E-002,0.35584566484220181,2488.5871372814427,8.67962374168503373E-003,99.338202188595218,181.62191589536337,272.10272585751619
201803150730,418.31627870071037,3.7635107780144570,0.21578565924596455,0,5.6361843240863632,1,4.3936664157130529,1,1.2131873245045364,0,9.72232746320851604E-002,1,-3.3306488786852522,0.23969544033928161,-0.10436794628075836,0.42145673719078613,-1109.1167572463446,-1.94749559583134585E-002,102.33243264408516,187.09632412882308,280.30438695902888
201803150800,418.31040737355380,3.7079812742979175,0.22075715026838330,0,2.7263884250266912,0,3.2923504596549540,0,0.68078358630487368,0,7.28444415109161525E-002,0,-3.0622955478933993,-2.0506010640017953,-4.79715804187582501E-003,0.42618892704510325,-2370.8372733796327,-9.11070542146874725E-003,104.82055057673843,191.64539725422719,287.11972745054072
201803150830,418.04538463376537,3.6738048256437437,0.52953067887107075,0,-6.9000741209234988,2,2.2156063747740453,1,0.48897669131362137,2,4.90078614878714791E-002,1,-6.8053585250249871,-1.2636177515971758,-0.21674299557940460,0.65975157018712760,3474.8328998212714,6.21612624915316055E-003,103.53351945057396,189.29229387807413,283.59434980148734
201803150900,417.16750655017887,3.3656771014517335,0.64120528361642892,0,15.199475635520226,2,-4.9050500247986726,2,1.2846681493864485,2,-0.10835423200474664,2,-33.341995694773651,-11.470416567002703,-0.72191332534819486,0.72395841704393415,-2084.6368770573863,-1.03615167887128341E-002,116.13857211480997,212.33835032365104,318.12154189828510
201803150930,416.67132433889026,3.1586811864519819,0.65169939580217040,0,14.903627158450275,1,-0.43059621175591561,2,0.14287705364731407,1,-9.50584454845983945E-003,2,-16.532856040406163,-7.7322567369481083,-0.40917226123127570,0.72881054229009978,-2169.3139358200119,-9.95706506252405990E-003,112.01183501042038,204.79335874153273,306.81776963079506
201803151000,416.54618984341761,3.0977154456130553,0.47396909125315756,0,7.0682882461411607,2,-0.12455257893684252,2,0.26624384499047404,2,-2.74852043570993554E-003,2,-10.241422973868357,-2.2821923827080437,-0.10336885100121151,0.62099365338054457,-2829.7718053564722,-7.63312432441138299E-003,115.65998321881450,211.46333718367171,316.81061276632562
201803151030,416.57983956993644,3.0478741547899855,0.47384771784516755,0,10.969963042615362,0,1.2653029359093986,2,-0.14774843372267255,0,2.79154120778976438E-002,2,-5.6922421550101285,-1.8682051864773614,2.78269980966658198E-002,0.62057083593771789,-1819.8314508090864,-1.18692310710405459E-002,113.41078202816672,207.35108006124031,310.64970224556436
201803151100,416.47608448174913,2.9734985416394881,0.78125471690579340,0,32.810015872743996,0,6.0249243947545077,0,0.42964993455626610,0,0.13289099946279978,0,-6.2219825367233179,-2.7920829849237045,-8.59114666329549720E-002,0.79631284741352382,-1285.8737078826982,-1.67979171419301056E-002,114.86049416177620,210.00161620344903,314.62068837751531
201803151130,416.40455789426437,2.8641706571966470,0.75000057931634279,0,16.774429266372760,0,6.2370722088689288,0,-0.74584263311360244,0,0.13750917776514224,0,-11.406122923721943,-4.1145107837309149,-5.93479441308862737E-002,0.77940105028004170,-2358.6834182145330,-9.15765118506267628E-003,115.11076060884689,210.45918308708366,315.30620694880298
201803151200,416.42571191902329,2.8051180390429602,0.82618912694272462,0,22.124354835529822,0,5.0669094690180492,0,0.40505092574115453,0,0.11167091090112043,0,-9.1179248358309426,-2.2270438399029580,1.75824556782883321E-002,0.81731768495490809,-2062.6515488493073,-1.04719578118029708E-002,117.30845660900310,214.47727229455850,321.32603677331855
201803151230,416.52519489615457,2.6774872029494428,0.38592778845982106,0,7.6938410852926715,1,-1.7938922724620476,2,-0.44565111306120514,1,-3.95217030466105401E-002,2,-9.3522671329658404,-4.8236868133965682,8.28345569215905020E-002,0.55809170150347631,-1888.8205865467314,-1.14357076335612016E-002,98.852889993649782,180.73461042061729,270.77338056811948
201803151300,416.44336487811887,2.5017009832806623,0.88342812375629587,0,54.976303688865301,1,30.543445367090779,1,0.13474465816630099,0,0.67260738029597367,1,-11.640992457793008,-6.6614314820245184,-6.82871502224888793E-002,0.84341616588314305,-912.60129752055434,-2.36686054015976324E-002,121.48632241841347,222.11574345611896,332.76985848502250
201803151330,416.08830761857308,2.2926294037451322,0.99229183395798826,0,64.156079935132922,0,17.620996783789870,0,0.76510127113223847,0,0.38780611758864963,0,-15.483722415368799,-7.9501076485707118,-0.29713963767239504,0.89256717560075050,-927.12134131741391,-2.32979212508548188E-002,105.04976486132928,192.06447407060583,287.74758088727032
201803151400,416.01309706322803,2.2278600216427109,0.62096052120551404,0,34.496934959939217,0,6.8377108313552331,0,0.42390649127718771,0,0.15044128378222257,0,-7.6476800284957980,-2.4673488174634541,-6.30370518194514201E-002,0.70553802074035132,-851.77801036910876,-2.53587199212150088E-002,102.50171577774836,187.40582768724573,280.76807968847862
201803151430,416.33738139726211,2.2168596596755896,1.0826681710877111,0,83.290444755156372,0,7.7577713935720070,0,-0.73765171722319511,1,0.17069113325445723,0,1.0578359804871220,-0.41910593239206706,0.27184214302689408,0.93153322359257629,-812.17291943735665,-2.65953216157018418E-002,113.11895852879668,206.81753363206042,309.85035246976395
201803151500,416.01152059482325,2.1421820688114979,1.0945737477203654,0,98.247119171788640,0,5.4237702438462154,2,0.28123354275394874,0,0.11933763991872909,2,0.13023504307755504,-2.8460524343052764,-0.27325044720581365,0.93647905849874025,-699.71749711721202,-3.08696010732767388E-002,111.77560387102230,204.36145287665536,306.17069594165571
201803151530,416.15231289953789,2.1161313023920538,0.78516840574496938,0,97.962954822160896,0,6.0107282712333649,2,-1.4322868839844123,0,0.13225885221503930,2,1.2860145843237298,-0.99273679363142742,0.11805657676401264,0.79316504936601939,-426.40766096262649,-5.06557503006335175E-002,108.27012799612353,197.95232496315279,296.56865443121222
201803151600,416.32617706222078,2.1139379142130137,0.99157495518212968,0,230.08153893395465,0,11.715794529559716,0,0.28160076871226103,0,0.25789352339595067,0,10.214852318619279,-8.34189478245514343E-002,0.14555528256040204,0.89205460598190811,-258.27771346938772,-8.36309091862861564E-002,112.57427180895421,205.82167258926907,308.35837115802099
201803151630,416.69359091435166,2.1252799737936972,0.85129594189656776,0,209.48685681740065,0,2.1523800086164333,2,2.4525575488205416,0,4.74010853422074246E-002,2,11.956031341572375,0.43035873098459881,0.30701780045543042,0.82732245728531051,-226.28837774972138,-9.54534219335380629E-002,113.36636236114659,207.26986674300133,310.52802989583813
201803151700,416.58312232161398,2.1103805449086090,0.85669631089271614,0,255.97563876966743,0,18.237720698903278,0,1.2046003144492925,0,0.40182437454754144,0,11.675013576546450,-0.56404486702662970,-9.21400764450243381E-002,0.83070322658792917,-187.46786283677588,-0.11521974845793513,109.54079874973358,200.27551636040317,300.04921848519325
201803151730,416.48793050033157,1.9328944892494542,1.3445361971433480,0,303.37258089081047,0,12.444152597692128,1,0.86637022001033692,0,0.27431295686936480,1,12.768638528141301,-6.7034481335818068,-7.92528055269029613E-002,1.0416012266642889,-311.85556935652329,-6.92628322930676499E-002,114.73918464162470,209.77982371092503,314.28840280783061
201803151800,416.53548135074647,1.8574943810286004,1.2868201254059319,0,300.56820406602185,0,25.670836039182156,0,1.2174085247093149,0,0.56615387043750809,0,12.630941269354858,-2.8408734184084770,3.95123327160094295E-002,1.0199720560421779,-295.56454303166402,-7.30804844804607695E-002,108.30967330592418,198.02462640179806,296.67697516134996
201803151830,416.24625608631089,1.8514476484395739,1.4249020752084351,0,338.88644833299747,0,18.978223992336439,0,1.4258859220286908,0,0.41869061752453651,0,8.4585838756817999,-0.22746825844621799,-0.24003464385252635,1.0739639527907028,-306.03461201263201,-7.05802518804913154E-002,116.11351786552154,212.29254316530881,318.05291442793128
201803151900,416.29066537919766,1.8527008448550044,1.3164459293955821,0,319.88554508275917,0,18.645308880437888,0,1.9015121231352321,0,0.41149342433665675,0,9.1788295972098357,4.70603429823438779E-002,3.68046862152814971E-002,1.0330064440802376,-288.52224647174734,-7.48642444876953944E-002,110.12179255382894,201.33775833275936,301.64065052561347
201803151930,416.06448487111271,1.8347994030230266,1.1595546882804710,0,264.16214797586537,0,4.8815508519158053,2,0.21094852838093736,0,0.10774584492043647,2,2.9115727305424106,-0.67203615988720744,-0.18741421083713727,0.96958664287605234,-288.95819280235190,-7.47512980702175617E-002,115.49997972206292,211.17079976111188,316.37233840003319
201803152000,416.03867197479536,1.7741888603108269,1.0263970221340943,0,263.85935649115578,0,19.769469115708674,1,0.84000338025337129,0,0.43640362601583216,1,2.9828822944920126,-2.2743056819143934,-2.13811344256440716E-002,0.91236871626568927,-241.05428249356495,-8.96063732059048657E-002,103.58586432115187,189.38799699603075,283.73773051157775
201803152030,415.79730480948609,1.7539935163144911,1.3045080962832705,0,257.34420988051966,0,1.0223056290978403,2,2.2092368194109486,0,2.25611222045687954E-002,2,-6.6906484759276452,-0.75905436921580216,-0.20020723378152988,1.0278521292743092,-353.47887433024164,-6.11069050192231747E-002,107.75325588094593,197.00731788870200,295.15286163084977
201803152100,415.64639495589063,1.7928176100239095,0.79219426433846196,0,142.99015571012620,0,12.093233711691221,0,0.38648230273450235,0,0.26683738348855734,0,-4.4726531710155903,1.4608375400283238,-0.12529173385786413,0.80061673564260161,-300.69668218539022,-7.18331836687271241E-002,103.78074877492709,189.74430793274047,284.27154922312252
201803152130,415.65556268063347,1.8481219858746782,0.76024236575219650,0,158.96496680808318,0,9.1197067195594350,0,0.79186033957820801,0,0.20122071399235153,0,-0.73353792367350712,2.0815068766148070,7.61327879074770713E-003,0.78421784755809820,-254.22197513236517,-8.49651175464024300E-002,107.50365379226406,196.55096566408835,294.46916284011542
201803152200,415.51692418341770,1.8697455313155902,0.92902946423619004,0,153.80740523171366,0,9.3123835244528124,0,0.30727598232906939,0,0.20543677647900135,0,-4.4051101810265374,0.81470806333494117,-0.11523284692055145,0.86653491873253730,-354.52540175764648,-6.09265228751246432E-002,110.21784106791362,201.51336564960860,301.90374228609642
201803152230,415.51383493933889,1.8608492316028689,0.78336006250449952,0,117.23852299771873,0,10.169801232687242,0,0.95354895052499344,0,0.22434967172917594,0,-0.25826652586941296,-0.33530770702938628,-2.56861684684390199E-003,0.79556190553425354,-360.01067008302749,-5.99982217055358355E-002,110.69548788536387,202.38665636954670,303.21209091896810
201803152300,415.52661662325340,1.7662805560212202,0.72621764836378977,0,76.823642362728435,0,6.7418409998160200,0,-8.34355979860941233E-002,0,0.14871481901377076,0,-2.2047903937571567,-3.5670725802999743,1.06347786191214148E-002,0.76572399559579596,-489.98462035572516,-4.40830162879776999E-002,111.64576740458399,204.12407040678906,305.81505374504638
201803152330,415.63111819496413,1.6778763934345524,0.95160731769934037,0,45.210898875446951,0,5.7145674919178662,1,-0.50867188776528849,0,0.12603991605617249,1,-3.0232070821131454,-3.3380009983353367,8.70284620574901385E-002,0.87611562798991516,-1247.4824016956607,-1.73148735169649307E-002,120.65711822895427,220.59969373667545,330.49853974486689
201803160000,415.86247285549268,1.6536722549430143,0.33808470963376308,0,-6.3248491623092216,1,6.0164716902056723,1,0.10016714187164677,1,0.13267877120526750,1,-3.8682620186336050,-0.91508732971852591,0.19289045106886052,0.52191084596671844,1885.8059328072486,1.14539887823164321E-002,111.60557252975396,204.05058135610193,305.70495375565872
